FW1841 Weather Reports


time (UTC)temp
C
wind
direction
speed
KPH
gust
KPH
rain 1hr
cm
rain 24hr
cm
rain mn
cm
humidity
%
barometer
mb
20260508003013 26 68 0.0 6.4 0.00 0.00 0.00 88 1015.7
20260508001513 26 79 4.8 9.7 0.00 0.00 0.00 88 1015.5
20260508000012 26 87 1.6 9.7 0.00 0.00 0.00 88 1015.5
20260507234521 26 1 0.0 11.3 0.00 0.00 0.00 88 1015.3
20260507233022 26 67 3.2 16.1 0.00 0.00 0.00 87 1015.1
20260507231511 26 91 0.0 11.3 0.00 0.00 0.00 86 1015.1
20260507230011 27 38 0.0 14.5 0.00 0.00 0.00 85 1014.8
20260507224517 27 50 4.8 9.7 0.00 0.00 0.00 84 1014.7
20260507223014 27 115 4.8 12.9 0.00 0.00 0.00 83 1014.5
20260507221509 27 78 1.6 12.9 0.00 0.00 0.00 82 1014.6
20260507220008 27 55 9.7 17.7 0.00 0.00 0.00 81 1014.4
20260507214514 28 114 0.0 0.0 0.00 0.00 0.00 79 1014.3
20260507213008 28 115 0.0 9.7 0.00 0.00 0.00 80 1014.4
20260507211507 28 106 6.4 12.9 0.00 0.00 0.00 80 1014.2
20260507210007 28 120 1.6 12.9 0.00 0.00 0.00 80 1014.2
20260507204505 28 85 1.6 9.7 0.00 0.00 0.00 79 1014.2
20260507203006 30 150 1.6 14.5 0.00 0.00 0.00 76 1014.2
20260507201507 29 137 6.4 14.5 0.00 0.00 0.00 73 1014.1
20260507200107 29 128 6.4 16.1 0.00 0.00 0.00 72 1014.4
20260507194600 29 141 8.0 20.9 0.00 0.00 0.00 73 1014.5
20260507193102 30 139 9.7 24.1 0.00 0.00 0.00 72 1014.7
20260507191559 30 150 9.7 19.3 0.00 0.00 0.00 75 1014.7
20260507190058 30 156 11.3 20.9 0.00 0.00 0.00 75 1014.9
20260507184558 29 195 14.5 22.5 0.00 0.00 0.00 75 1015.1
20260507183056 30 230 9.7 22.5 0.00 0.00 0.00 76 1015.2
20260507181555 30 148 8.0 24.1 0.00 0.00 0.00 76 1015.5
20260507180104 30 150 11.3 22.5 0.00 0.00 0.00 71 1015.8
20260507174622 30 210 12.9 24.1 0.00 0.00 0.00 75 1016.0
20260507173051 30 148 14.5 24.1 0.00 0.00 0.00 70 1016.0
20260507171603 29 109 16.1 24.1 0.00 0.00 0.00 73 1016.3
20260507170050 29 136 14.5 22.5 0.00 0.00 0.00 75 1016.4
20260507164553 29 155 14.5 27.4 0.00 0.00 0.00 76 1016.5
20260507163047 30 146 14.5 25.7 0.00 0.00 0.00 75 1016.5
20260507161550 28 138 16.1 25.7 0.00 0.00 0.00 78 1016.7
20260507160109 29 128 14.5 24.1 0.00 0.00 0.00 77 1016.8
20260507154542 29 148 8.0 25.7 0.00 0.00 0.00 79 1016.7
20260507153040 28 207 14.5 32.2 0.00 0.00 0.00 81 1016.8
20260507151538 28 145 14.5 27.4 0.00 0.00 0.00 79 1016.8
20260507150038 28 143 16.1 22.5 0.00 0.00 0.00 80 1016.8
20260507144534 28 153 14.5 22.5 0.00 0.00 0.00 81 1016.8
20260507143032 28 157 11.3 25.7 0.00 0.00 0.00 81 1016.5
20260507141533 28 135 12.9 19.3 0.00 0.00 0.00 84 1016.6
20260507140040 27 148 14.5 22.5 0.00 0.00 0.00 83 1016.4
20260507134531 28 143 6.4 16.1 0.00 0.00 0.00 84 1016.4
20260507133032 28 120 9.7 16.1 0.00 0.00 0.00 82 1016.4
20260507131553 28 68 8.0 19.3 0.00 0.00 0.00 83 1016.3
20260507130026 27 117 9.7 17.7 0.00 0.00 0.00 84 1016.1
20260507124524 27 82 6.4 19.3 0.00 0.00 0.00 84 1016.0
20260507123027 27 89 4.8 17.7 0.00 0.00 0.00 84 1016.0
20260507121519 27 132 8.0 19.3 0.00 0.00 0.00 85 1015.9
20260507120028 27 117 4.8 16.1 0.00 0.00 0.00 85 1016.0
20260507114517 27 70 4.8 14.5 0.00 0.00 0.00 86 1015.8
20260507113031 26 84 3.2 9.7 0.00 0.00 0.00 87 1015.8
20260507111513 26 40 0.0 6.4 0.00 0.00 0.00 87 1015.5
20260507110009 25 82 0.0 0.0 0.00 0.00 0.00 88 1015.4
20260507104514 25 88 0.0 0.0 0.00 0.00 0.00 89 1015.3
20260507103008 25 88 0.0 0.0 0.00 0.00 0.00 89 1015.4
20260507101508 25 88 0.0 0.0 0.00 0.00 0.00 89 1015.1
20260507100013 25 88 0.0 0.0 0.00 0.00 0.00 89 1015.1
20260507094507 25 98 0.0 0.0 0.00 0.00 0.00 90 1015.0
20260507093006 25 116 0.0 0.0 0.00 0.00 0.00 90 1014.9
20260507091505 25 116 0.0 0.0 0.00 0.00 0.00 90 1014.7
20260507090006 25 116 0.0 0.0 0.00 0.00 0.00 89 1014.7
20260507084503 25 116 0.0 0.0 0.00 0.00 0.00 89 1014.5
20260507083007 25 98 0.0 0.0 0.00 0.00 0.00 89 1014.5
20260507081501 25 70 0.0 0.0 0.00 0.00 0.00 89 1014.4
20260507074558 25 25 0.0 0.0 0.00 0.00 0.00 89 1014.5
20260507073059 25 66 0.0 0.0 0.00 0.00 0.00 88 1014.7
20260507071555 25 70 0.0 6.4 0.00 0.00 0.00 88 1014.8
20260507070105 25 115 0.0 6.4 0.00 0.00 0.00 89 1015.0
20260507064554 25 87 0.0 11.3 0.00 0.00 0.00 89 1015.2
20260507063054 25 43 0.0 4.8 0.00 0.00 0.00 89 1015.3
20260507061548 25 83 0.0 0.0 0.00 0.00 0.00 89 1015.5
20260507060047 25 81 0.0 0.0 0.00 0.00 0.00 88 1015.7
20260507054545 25 86 0.0 4.8 0.00 0.00 0.00 88 1015.8
20260507053042 25 94 0.0 0.0 0.00 0.00 0.00 88 1016.2
20260507051541 25 64 0.0 0.0 0.00 0.00 0.00 88 1016.3
20260507050101 25 86 0.0 9.7 0.00 0.00 0.00 88 1016.5
20260507044549 25 70 0.0 0.0 0.00 0.00 0.00 88 1016.6
20260507043036 25 80 0.0 0.0 0.00 0.00 0.00 88 1016.8
20260507041535 25 75 0.0 8.0 0.00 0.00 0.00 88 1017.1
20260507040033 25 73 1.6 8.0 0.00 0.00 0.00 88 1017.2
20260507034538 25 63 3.2 11.3 0.00 0.00 0.00 88 1017.2
20260507033039 25 8 0.0 4.8 0.00 0.00 0.00 88 1017.2
20260507031534 25 358 0.0 8.0 0.00 0.00 0.00 87 1017.4
20260507030035 25 44 1.6 11.3 0.00 0.00 0.00 88 1017.5
20260507024535 25 35 1.6 12.9 0.00 0.00 0.00 88 1017.1
20260507023028 25 44 1.6 8.0 0.00 0.00 0.00 88 1017.1
20260507021544 25 37 0.0 9.7 0.00 0.00 0.00 87 1016.9
20260507020028 25 52 0.0 8.0 0.00 0.00 0.00 87 1017.0
20260507014527 26 72 0.0 12.9 0.00 0.00 0.00 87 1017.0
20260507013032 26 36 0.0 9.7 0.00 0.00 0.00 87 1016.9
20260507011531 26 84 0.0 12.9 0.00 0.00 0.00 87 1016.7
20260507010037 26 96 0.0 9.7 0.00 0.00 0.00 87 1016.7
20260507004525 26 63 0.0 0.0 0.00 0.00 0.00 87 1016.5